Location: Aulnoy
(48.8410°N, 3.0967°E)
Time: 19:47:12
(UTC+00:00)

Cosmos 968 Rocket - Pass Details

Date: 09 February 2023
Orbit: 740 x 770 km, 74.0° (Epoch: 25 March)

Event Time Altitude Azimuth Distance (km) Brightness Sun altitude
Rises 18:27:47 0° 192° (SSW) 3,204 6.9 -15.2°
Reaches altitude 10° 18:30:09 10° 189° (S) 2,288 6.1 -15.5°
Maximum altitude 18:35:17 65° 109° (ESE) 841 3.4 -16.4°
Drops below altitude 10° 18:40:30 10° 28° (NNE) 2,320 5.7 -17.2°
Enters shadow 18:41:14 - 27° (NNE) 2,604 6.0 -17.4°
